Location: Pagani
(40.7500°N, 14.6167°E)
Time: 08:09:14
(UTC+00:00)

Meteor 1-11 Rocket - Pass Details

Date: 15 May 2026
Orbit: 829 x 915 km, 81.2° (Epoch: 5 June)

Event Time Altitude Azimuth Distance (km) Brightness Sun altitude
Rises 23:03:07 0° 345° (NNW) 3,436 7.9 -30.2°
Reaches altitude 10° 23:05:37 10° 340° (NNW) 2,484 6.9 -30.2°
Enters shadow 23:10:11 47° 296° (WNW) 1,107 4.3 -30.1°
